This demonstration page uses our WeatherBlox Daily Observations layout. Learn more.

Left ArrowRight Arrow

Hourly Observations for July 7, 2016

Temp ( °F °C ) Dew Point ( °F °C ) Humidity (%) Winds ( mph kmh ) Pressure ( in mb ) Visibility ( mi km ) Precip ( " mm )
12:53 am 00:53 Clear 73 22.8 69 20.6 87 87 N N/A 29.87 1012 10 16 N/A
1:53 am 01:53 Clear 73 22.8 69 20.6 87 87 SW 5 7 29.88 1012 10 16 N/A
2:53 am 02:53 Partly Cloudy 73 22.8 68 20 84 84 N N/A 29.86 1011 10 16 N/A
3:53 am 03:53 Mostly Cloudy 70 21.1 67 19.4 90 90 N N/A 29.86 1011 10 16 N/A
4:06 am 04:06 Mostly Clear 70 21.1 67 19.4 90 90 N N/A 29.88 1012 10 16 N/A
4:29 am 04:29 Mostly Cloudy 70 21.1 68 20 93 93 N N/A 29.88 1012 10 16 N/A
4:42 am 04:42 Mostly Cloudy 69 20.6 67 19.4 93 93 N N/A 29.88 1012 10 16 N/A
4:53 am 04:53 Mostly Cloudy 70 21.1 67 19.4 90 90 N N/A 29.86 1011 10 16 N/A
5:53 am 05:53 Cloudy 71 21.7 68 20 90 90 N N/A 29.87 1012 10 16 N/A
6:53 am 06:53 Cloudy 72 22.2 68 20 87 87 SW 6 9 29.88 1012 10 16 N/A
7:53 am 07:53 Cloudy 72 22.2 67 19.4 84 84 WSW 7 11 29.89 1012 10 16 N/A
8:27 am 08:27 Cloudy 73 22.8 68 20 84 84 W 8 13 29.91 1013 10 16 N/A
8:53 am 08:53 Cloudy 73 22.8 68 20 84 84 SW 6 9 29.90 1012 10 16 N/A
9:53 am 09:53 Cloudy 74 23.3 68 20 82 82 WSW 5 7 29.92 1013 10 16 N/A
10:53 am 10:53 Cloudy 77 25 70 21.1 79 79 VRB 6 9 29.92 1013 10 16 N/A
11:08 am 11:08 Partly Cloudy 79 26.1 70 21.1 74 74 VRB 5 7 29.88 1012 10 16 N/A
11:53 am 11:53 Mostly Cloudy 80 26.7 71 21.7 74 74 N N/A 29.90 1012 10 16 N/A
12:53 pm 12:53 Cloudy 81 27.2 71 21.7 72 72 SW 6 9 29.90 1013 10 16 N/A
1:53 pm 13:53 Cloudy 81 27.2 71 21.7 72 72 VRB 5 7 29.90 1012 10 16 N/A
2:42 pm 14:42 Partly Cloudy 83 28.3 71 21.7 67 67 W 10 17 29.91 1013 10 16 N/A
2:53 pm 14:53 Mostly Cloudy 83 28.3 71 21.7 67 67 WSW 9 15 29.92 1013 10 16 N/A
3:08 pm 15:08 Cloudy 82 27.8 71 21.7 69 69 WSW 8 13 29.91 1013 10 16 N/A
3:39 pm 15:39 Cloudy 82 27.8 71 21.7 69 69 SW 8 13 29.88 1012 10 16 N/A
3:49 pm 15:49 Cloudy 82 28 72 22 70 70 WSW 8 13 29.88 1012 10 16 N/A
3:53 pm 15:53 Cloudy 83 28.3 71 21.7 67 67 SW 6 9 29.89 1012 10 16 N/A
4:53 pm 16:53 Mostly Cloudy 84 28.9 71 21.7 65 65 W 8 13 29.87 1011 10 16 N/A
5:53 pm 17:53 Mostly Sunny 83 28.3 71 21.7 67 67 SSW 5 7 29.86 1011 10 16 N/A
6:53 pm 18:53 Mostly Sunny 82 27.8 69 20.6 65 65 SSW 7 11 29.85 1011 10 16 N/A
7:53 pm 19:53 Sunny 82 27.8 70 21.1 67 67 SSW 6 9 29.85 1011 10 16 N/A
8:53 pm 20:53 Sunny 80 26.7 70 21.1 71 71 SSW 6 9 29.86 1011 10 16 N/A
9:53 pm 21:53 Clear 76 24.4 70 21.1 82 82 SSW 3 6 29.87 1012 10 16 N/A
10:53 pm 22:53 Clear 77 25 70 21.1 79 79 S 5 7 29.88 1012 10 16 N/A
11:53 pm 23:53 Mostly Cloudy 79 26.1 69 20.6 72 72 SW 12 19 29.88 1012 10 16 N/A

Powered by AerisWeather